User: anonymous   Login
Location: Unspecified
(0.0000°N, 0.0000°E)
Time: 18:34:15
(UTC+02:00)
Language:

GP-B - Orbit

View from above orbital plane
View from above orbital plane
View from above satellite
View from above satellite

Ground track
Ground track

The orbit data is extracted from the following two-line orbital elements,

1 28230U 04014A   15245.93344533 +.00000247 +00000-0 +31889-4 0  9991
2 28230 089.8739 133.4901 0002572 072.3228 287.8275 14.78226216069780
Epoch (UTC): 02 September 2015 22:24:09
Eccentricity: 0.0002572
inclination: 89.8739°
perigee height: 633 km
apogee height: 637 km
right ascension of ascending node: 133.4901°
argument of perigee: 72.3228°
revolutions per day: 14.78226216
mean anomaly at epoch: 287.8275°
orbit number at epoch: 6978

The dashed part of the orbit path shows where the satellite is in the earth's shadow,  

DLR